Location: Unspecified
(47.4992°N, 121.7766°W)
Time: 11:43:14
(UTC-07:00)

Okean 3 - Pass Details

Date: 08 August 2024
Orbit: 557 x 580 km, 82.5° (Epoch: 12 September)

Event Time Altitude Azimuth Distance (km) Brightness Sun altitude
Rises 04:23:48 0° 330° (NNW) 2,756 7.1 -13.6°
Reaches altitude 10° 04:27:22 10° 297° (WNW) 1,851 5.8 -13.1°
Maximum altitude 04:28:43 11° 278° (W) 1,753 5.5 -12.9°
Enters shadow 04:29:03 11° 273° (W) 1,758 5.5 -12.9°
